Weather History for Eureka, NV

Change the Weather History Date:

Wednesday, December 5, 2012

  Actual Average Record
Temperature  
Mean Temperature 43 °F 27 °F  
Max Temperature 50 °F 41 °F 61 °F (1995)
Min Temperature 36 °F 13 °F -13 °F (2013)
Degree Days  
Heating Degree Days 22 38  
Month to date heating degree days 122 187  
Since 1 July heating degree days 1418 1946  
Cooling Degree Days 0 0  
Month to date cooling degree days 0 0  
Year to date cooling degree days 529 288  
Moisture  
Dew Point 37 °F    
Average Humidity 78    
Maximum Humidity 89    
Minimum Humidity 66    
Precipitation  
Precipitation 0.01 in 0.02 in 0.46 in (1996)
Month to date precipitation 0.14 0.09  
Year to date precipitation 6.06 8.48  
Sea Level Pressure  
Sea Level Pressure 30.08 in    
Wind  
Wind Speed 5 mph (SW)    
Max Wind Speed 12 mph    
Max Gust Speed 15 mph    
T = Trace of Precipitation, MM = Missing Value Source: NWS Daily Summary

Daily Weather History Graph

Daily Weather History Graph

Search for Another Location

Airport:

Trip Planner

Search our weather history database for the weather conditions in past years. The results will help you decide how hot, cold, wet, or windy it might be!

Date:

Astronomy

Dec. 05, 2012 Rise Set
Actual Time 6:49 AM PST 4:19 PM PST
Civil Twilight 6:19 AM PST 4:49 PM PST
Nautical Twilight 5:46 AM PST 5:23 PM PST
Astronomical Twilight 5:13 AM PST 5:55 PM PST
Moon 11:12 PM PST (12/5) 11:16 AM PST (12/5)
Length of Visible Light 10h 29m
Length of Day
9h 29m
Waning Gibbous, 58% of the Moon is Illuminated
Dec 5
Waning Gibbous
Dec 6
Last Quarter
Dec 13
New
Dec 19
First Quarter
Dec 28
Full

Hourly Weather History & Observations

Time (PST) Temp. Windchill Dew Point Humidity Pressure Visibility Wind Dir Wind Speed Gust Speed Precip Events Conditions
12:53 AM 42.1 °F 37.1 °F 33.1 °F 70% 30.10 in - SSW 8.1 mph - N/A   Unknown
1:53 AM 39.0 °F 33.4 °F 33.1 °F 79% 30.10 in - SW 8.1 mph - N/A   Unknown
2:53 AM 37.9 °F 32.1 °F 32.0 °F 79% 30.08 in - SSW 8.1 mph - N/A   Unknown
3:53 AM 37.9 °F - 33.1 °F 83% 30.10 in - Calm Calm - N/A   Unknown
4:53 AM 39.0 °F 34.8 °F 33.1 °F 79% 30.09 in - SSE 5.8 mph - N/A   Unknown
6:53 AM 39.9 °F 35.1 °F 34.0 °F 79% 30.12 in - SW 6.9 mph - N/A   Unknown
7:53 AM 41.0 °F 39.0 °F 35.1 °F 79% 30.11 in - South 3.5 mph - N/A   Unknown
8:53 AM 42.1 °F 39.2 °F 37.0 °F 82% 30.15 in - WSW 4.6 mph - N/A   Unknown
9:53 AM 45.0 °F 43.5 °F 39.9 °F 82% 30.13 in - SSW 3.5 mph - 0.01 in   Unknown
10:53 AM 46.9 °F - 39.9 °F 77% 30.12 in - WSW 9.2 mph - N/A   Unknown
11:53 AM 50.0 °F - 41.0 °F 71% 30.08 in - West 9.2 mph - N/A   Unknown
12:53 PM 50.0 °F - 39.9 °F 68% 30.06 in - WNW 4.6 mph - N/A   Unknown
1:53 PM 50.0 °F - 39.0 °F 66% 30.05 in - WSW 8.1 mph - N/A   Unknown
2:53 PM 48.9 °F - 39.0 °F 69% 30.05 in - West 3.5 mph - N/A   Unknown
3:53 PM 48.0 °F - 39.9 °F 74% 30.06 in - West 3.5 mph - N/A   Unknown
4:53 PM 46.0 °F 43.1 °F 39.9 °F 79% 30.06 in - WSW 5.8 mph - N/A   Unknown
5:53 PM 44.1 °F 40.8 °F 39.9 °F 85% 30.07 in - NNW 5.8 mph - N/A   Unknown
6:53 PM 44.1 °F 41.5 °F 39.9 °F 85% 30.06 in - NNW 4.6 mph - N/A   Unknown
7:53 PM 42.1 °F 39.2 °F 39.0 °F 89% 30.07 in - South 4.6 mph - N/A   Unknown
8:53 PM 39.0 °F 36.8 °F 36.0 °F 89% 30.07 in - SW 3.5 mph - N/A   Unknown
9:53 PM 39.0 °F 35.7 °F 36.0 °F 89% 30.06 in - South 4.6 mph - N/A   Unknown
10:53 PM 39.0 °F 34.8 °F 36.0 °F 89% 30.05 in - SSW 5.8 mph - N/A   Unknown
11:53 PM 37.9 °F 35.5 °F 35.1 °F 89% 30.04 in - SW 3.5 mph - N/A   Unknown